Time,TemperatureF,DewpointF,PressureIn,WindDirection,WindDirectionDegrees,WindSpeedMPH,WindSpeedGustMPH,Humidity,HourlyPrecipIn,Conditions,Clouds,dailyrainin,SoftwareType,DateUTC
2013-06-15 00:02:00,74.0,63.0,30.02,North,-999,-999.0,-999.0,70,-99.99,,,-99.99,,2013-06-15 05:02:00,
2013-06-15 00:12:00,74.0,63.0,30.02,North,-999,-999.0,-999.0,70,-99.99,,,-99.99,,2013-06-15 05:12:00,
2013-06-15 00:22:00,74.0,63.0,30.02,North,-999,-999.0,-999.0,70,-99.99,,,-99.99,,2013-06-15 05:22:00,
2013-06-15 00:34:00,73.0,64.0,30.02,North,-999,-999.0,-999.0,72,-99.99,,,-99.99,,2013-06-15 05:34:00,
2013-06-15 00:43:00,73.0,63.0,30.02,North,-999,-999.0,-999.0,72,-99.99,,,-99.99,,2013-06-15 05:43:00,
2013-06-15 00:52:00,73.0,63.0,30.03,North,-999,-999.0,-999.0,72,-99.99,,,-99.99,,2013-06-15 05:52:00,
2013-06-15 01:02:00,73.0,63.0,30.03,North,-999,-999.0,-999.0,72,-99.99,,,-99.99,,2013-06-15 06:02:00,
2013-06-15 01:12:00,73.0,63.0,30.03,North,-999,-999.0,-999.0,72,-99.99,,,-99.99,,2013-06-15 06:12:00,
2013-06-15 01:24:00,73.0,63.0,30.03,North,-999,-999.0,-999.0,72,-99.99,,,-99.99,,2013-06-15 06:24:00,
2013-06-15 01:33:00,72.0,62.0,30.04,North,-999,-999.0,-999.0,71,-99.99,,,-99.99,,2013-06-15 06:33:00,
2013-06-15 01:43:00,72.0,62.0,30.03,North,-999,-999.0,-999.0,72,-99.99,,,-99.99,,2013-06-15 06:43:00,
2013-06-15 01:53:00,72.0,62.0,30.03,North,-999,-999.0,-999.0,71,-99.99,,,-99.99,,2013-06-15 06:53:00,
2013-06-15 02:01:00,72.0,62.0,30.03,North,-999,-999.0,-999.0,71,-99.99,,,-99.99,,2013-06-15 07:01:00,
2013-06-15 02:11:00,72.0,61.0,30.03,North,-999,-999.0,-999.0,70,-99.99,,,-99.99,,2013-06-15 07:11:00,
2013-06-15 02:23:00,72.0,61.0,30.03,North,-999,-999.0,-999.0,70,-99.99,,,-99.99,,2013-06-15 07:23:00,
2013-06-15 02:33:00,72.0,61.0,30.03,North,-999,-999.0,-999.0,67,-99.99,,,-99.99,,2013-06-15 07:33:00,
2013-06-15 02:43:00,72.0,60.0,30.03,North,-999,-999.0,-999.0,65,-99.99,,,-99.99,,2013-06-15 07:43:00,
2013-06-15 02:53:00,72.0,60.0,30.03,North,-999,-999.0,-999.0,65,-99.99,,,-99.99,,2013-06-15 07:53:00,
2013-06-15 03:02:00,72.0,60.0,30.03,North,-999,-999.0,-999.0,65,-99.99,,,-99.99,,2013-06-15 08:02:00,
2013-06-15 03:11:00,72.0,59.0,30.03,North,-999,-999.0,-999.0,63,-99.99,,,-99.99,,2013-06-15 08:11:00,
2013-06-15 03:22:00,72.0,59.0,30.03,North,-999,-999.0,-999.0,63,-99.99,,,-99.99,,2013-06-15 08:22:00,
2013-06-15 03:33:00,72.0,59.0,30.02,North,-999,-999.0,-999.0,62,-99.99,,,-99.99,,2013-06-15 08:33:00,
2013-06-15 03:42:00,72.0,59.0,30.02,North,-999,-999.0,-999.0,62,-99.99,,,-99.99,,2013-06-15 08:42:00,
2013-06-15 03:53:00,72.0,58.0,30.02,North,-999,-999.0,-999.0,62,-99.99,,,-99.99,,2013-06-15 08:53:00,
2013-06-15 04:02:00,72.0,58.0,30.02,North,-999,-999.0,-999.0,62,-99.99,,,-99.99,,2013-06-15 09:02:00,
2013-06-15 04:12:00,72.0,58.0,30.02,North,-999,-999.0,-999.0,62,-99.99,,,-99.99,,2013-06-15 09:12:00,
2013-06-15 04:22:00,72.0,58.0,30.02,North,-999,-999.0,-999.0,62,-99.99,,,-99.99,,2013-06-15 09:22:00,
2013-06-15 04:33:00,72.0,59.0,30.01,North,-999,-999.0,-999.0,64,-99.99,,,-99.99,,2013-06-15 09:33:00,
2013-06-15 04:43:00,72.0,59.0,30.01,North,-999,-999.0,-999.0,64,-99.99,,,-99.99,,2013-06-15 09:43:00,
2013-06-15 04:52:00,71.0,59.0,30.00,North,-999,-999.0,-999.0,64,-99.99,,,-99.99,,2013-06-15 09:52:00,
2013-06-15 05:02:00,71.0,59.0,30.00,North,-999,-999.0,-999.0,64,-99.99,,,-99.99,,2013-06-15 10:02:00,
2013-06-15 05:11:00,71.0,58.0,30.00,North,-999,-999.0,-999.0,64,-99.99,,,-99.99,,2013-06-15 10:11:00,
2013-06-15 05:23:00,71.0,58.0,30.00,North,-999,-999.0,-999.0,64,-99.99,,,-99.99,,2013-06-15 10:23:00,
2013-06-15 05:33:00,71.0,59.0,30.01,North,-999,-999.0,-999.0,65,-99.99,,,-99.99,,2013-06-15 10:33:00,
2013-06-15 05:44:00,71.0,59.0,30.01,North,-999,-999.0,-999.0,65,-99.99,,,-99.99,,2013-06-15 10:44:00,
2013-06-15 05:53:00,71.0,59.0,30.01,North,-999,-999.0,-999.0,66,-99.99,,,-99.99,,2013-06-15 10:53:00,
2013-06-15 06:02:00,71.0,59.0,30.01,North,-999,-999.0,-999.0,66,-99.99,,,-99.99,,2013-06-15 11:02:00,
2013-06-15 06:11:00,71.0,59.0,30.01,North,-999,-999.0,-999.0,66,-99.99,,,-99.99,,2013-06-15 11:11:00,
2013-06-15 06:22:00,71.0,59.0,30.01,North,-999,-999.0,-999.0,66,-99.99,,,-99.99,,2013-06-15 11:22:00,
2013-06-15 06:33:00,71.0,59.0,30.01,North,-999,-999.0,-999.0,66,-99.99,,,-99.99,,2013-06-15 11:33:00,
2013-06-15 06:43:00,71.0,59.0,30.02,North,-999,-999.0,-999.0,66,-99.99,,,-99.99,,2013-06-15 11:43:00,
2013-06-15 06:53:00,71.0,59.0,30.03,North,-999,-999.0,-999.0,66,-99.99,,,-99.99,,2013-06-15 11:53:00,
2013-06-15 07:01:00,71.0,59.0,30.03,North,-999,-999.0,-999.0,66,-99.99,,,-99.99,,2013-06-15 12:01:00,
2013-06-15 07:12:00,72.0,59.0,30.04,North,-999,-999.0,-999.0,64,-99.99,,,-99.99,,2013-06-15 12:12:00,
2013-06-15 07:22:00,72.0,60.0,30.05,North,-999,-999.0,-999.0,66,-99.99,,,-99.99,,2013-06-15 12:22:00,
2013-06-15 07:33:00,72.0,60.0,30.05,North,-999,-999.0,-999.0,66,-99.99,,,-99.99,,2013-06-15 12:33:00,
2013-06-15 07:43:00,72.0,61.0,30.07,North,-999,-999.0,-999.0,67,-99.99,,,-99.99,,2013-06-15 12:43:00,
2013-06-15 07:52:00,71.0,60.0,30.08,North,-999,-999.0,-999.0,68,-99.99,,,-99.99,,2013-06-15 12:52:00,
2013-06-15 08:02:00,71.0,60.0,30.08,North,-999,-999.0,-999.0,68,-99.99,,,-99.99,,2013-06-15 13:02:00,
2013-06-15 08:11:00,71.0,60.0,30.07,North,-999,-999.0,-999.0,67,-99.99,,,-99.99,,2013-06-15 13:11:00,
2013-06-15 08:22:00,71.0,60.0,30.07,North,-999,-999.0,-999.0,67,-99.99,,,-99.99,,2013-06-15 13:22:00,
2013-06-15 08:32:00,72.0,61.0,30.08,North,-999,-999.0,-999.0,68,-99.99,,,-99.99,,2013-06-15 13:32:00,
2013-06-15 08:43:00,72.0,61.0,30.07,North,-999,-999.0,-999.0,67,-99.99,,,-99.99,,2013-06-15 13:43:00,
2013-06-15 08:53:00,74.0,62.0,30.06,North,-999,-999.0,-999.0,66,-99.99,,,-99.99,,2013-06-15 13:53:00,
2013-06-15 09:01:00,74.0,62.0,30.06,North,-999,-999.0,-999.0,66,-99.99,,,-99.99,,2013-06-15 14:01:00,
2013-06-15 09:12:00,74.0,62.0,30.06,North,-999,-999.0,-999.0,65,-99.99,,,-99.99,,2013-06-15 14:12:00,
2013-06-15 09:22:00,74.0,62.0,30.06,North,-999,-999.0,-999.0,65,-99.99,,,-99.99,,2013-06-15 14:22:00,
2013-06-15 09:34:00,75.0,62.0,30.07,North,-999,-999.0,-999.0,63,-99.99,,,-99.99,,2013-06-15 14:34:00,
2013-06-15 09:43:00,74.0,62.0,30.08,North,-999,-999.0,-999.0,66,-99.99,,,-99.99,,2013-06-15 14:43:00,
2013-06-15 09:53:00,72.0,63.0,30.11,North,-999,-999.0,-999.0,72,-99.99,,,-99.99,,2013-06-15 14:53:00,
2013-06-15 10:02:00,72.0,63.0,30.11,North,-999,-999.0,-999.0,72,-99.99,,,-99.99,,2013-06-15 15:02:00,
2013-06-15 10:11:00,72.0,62.0,30.09,North,-999,-999.0,-999.0,73,-99.99,,,-99.99,,2013-06-15 15:11:00,
2013-06-15 10:22:00,72.0,62.0,30.09,North,-999,-999.0,-999.0,73,-99.99,,,-99.99,,2013-06-15 15:22:00,
2013-06-15 10:33:00,71.0,63.0,30.07,North,-999,-999.0,-999.0,74,-99.99,,,-99.99,,2013-06-15 15:33:00,
2013-06-15 10:43:00,71.0,63.0,30.06,North,-999,-999.0,-999.0,75,-99.99,,,-99.99,,2013-06-15 15:43:00,
2013-06-15 10:53:00,71.0,63.0,30.07,North,-999,-999.0,-999.0,75,-99.99,,,-99.99,,2013-06-15 15:53:00,
2013-06-15 11:01:00,71.0,63.0,30.07,North,-999,-999.0,-999.0,75,-99.99,,,-99.99,,2013-06-15 16:01:00,
2013-06-15 11:11:00,71.0,63.0,30.07,North,-999,-999.0,-999.0,75,-99.99,,,-99.99,,2013-06-15 16:11:00,
2013-06-15 11:22:00,71.0,63.0,30.06,North,-999,-999.0,-999.0,76,-99.99,,,-99.99,,2013-06-15 16:22:00,
2013-06-15 11:33:00,71.0,63.0,30.06,North,-999,-999.0,-999.0,76,-99.99,,,-99.99,,2013-06-15 16:33:00,
2013-06-15 11:43:00,71.0,63.0,30.05,North,-999,-999.0,-999.0,77,-99.99,,,-99.99,,2013-06-15 16:43:00,
2013-06-15 11:53:00,71.0,64.0,30.05,North,-999,-999.0,-999.0,79,-99.99,,,-99.99,,2013-06-15 16:53:00,
2013-06-15 12:02:00,71.0,64.0,30.05,North,-999,-999.0,-999.0,79,-99.99,,,-99.99,,2013-06-15 17:02:00,
2013-06-15 12:12:00,71.0,63.0,30.03,North,-999,-999.0,-999.0,78,-99.99,,,-99.99,,2013-06-15 17:12:00,
2013-06-15 12:20:00,70.0,63.0,30.03,North,-999,-999.0,-999.0,79,-99.99,,,-99.99,,2013-06-15 17:20:00,
2013-06-15 12:22:00,71.0,63.0,30.03,North,-999,-999.0,-999.0,78,-99.99,,,-99.99,,2013-06-15 17:22:00,
2013-06-15 12:32:00,71.0,64.0,30.05,North,-999,-999.0,-999.0,77,-99.99,,,-99.99,,2013-06-15 17:32:00,
2013-06-15 12:43:00,71.0,63.0,30.06,North,-999,-999.0,-999.0,77,-99.99,,,-99.99,,2013-06-15 17:43:00,
2013-06-15 12:52:00,70.0,63.0,30.03,North,-999,-999.0,-999.0,79,-99.99,,,-99.99,,2013-06-15 17:52:00,
2013-06-15 13:01:00,70.0,63.0,30.03,North,-999,-999.0,-999.0,79,-99.99,,,-99.99,,2013-06-15 18:01:00,
2013-06-15 13:12:00,70.0,63.0,30.03,North,-999,-999.0,-999.0,79,-99.99,,,-99.99,,2013-06-15 18:12:00,
2013-06-15 13:32:00,70.0,64.0,30.03,North,-999,-999.0,-999.0,81,-99.99,,,-99.99,,2013-06-15 18:32:00,
2013-06-15 13:43:00,70.0,64.0,30.04,North,-999,-999.0,-999.0,81,-99.99,,,-99.99,,2013-06-15 18:43:00,
2013-06-15 13:53:00,71.0,65.0,30.03,North,-999,-999.0,-999.0,81,-99.99,,,-99.99,,2013-06-15 18:53:00,
2013-06-15 14:01:00,71.0,65.0,30.03,North,-999,-999.0,-999.0,81,-99.99,,,-99.99,,2013-06-15 19:01:00,
2013-06-15 14:11:00,71.0,65.0,30.05,North,-999,-999.0,-999.0,81,-99.99,,,-99.99,,2013-06-15 19:11:00,
2013-06-15 14:22:00,71.0,65.0,30.05,North,-999,-999.0,-999.0,81,-99.99,,,-99.99,,2013-06-15 19:22:00,
2013-06-15 14:33:00,70.0,65.0,30.05,North,-999,-999.0,-999.0,82,-99.99,,,-99.99,,2013-06-15 19:33:00,
2013-06-15 14:43:00,70.0,64.0,30.05,North,-999,-999.0,-999.0,82,-99.99,,,-99.99,,2013-06-15 19:43:00,
2013-06-15 14:52:00,69.0,64.0,30.04,North,-999,-999.0,-999.0,84,-99.99,,,-99.99,,2013-06-15 19:52:00,
2013-06-15 15:02:00,69.0,64.0,30.04,North,-999,-999.0,-999.0,84,-99.99,,,-99.99,,2013-06-15 20:02:00,
2013-06-15 15:11:00,69.0,64.0,30.03,North,-999,-999.0,-999.0,85,-99.99,,,-99.99,,2013-06-15 20:11:00,
2013-06-15 15:22:00,69.0,64.0,30.03,North,-999,-999.0,-999.0,85,-99.99,,,-99.99,,2013-06-15 20:22:00,
2013-06-15 15:33:00,71.0,66.0,30.00,North,-999,-999.0,-999.0,85,-99.99,,,-99.99,,2013-06-15 20:33:00,
2013-06-15 15:43:00,72.0,68.0,-100.00,North,-999,-999.0,-999.0,87,-99.99,,,-99.99,,2013-06-15 20:43:00,
2013-06-15 15:53:00,74.0,68.0,-100.00,North,-999,-999.0,-999.0,81,-99.99,,,-99.99,,2013-06-15 20:53:00,
2013-06-15 16:01:00,74.0,68.0,29.95,North,-999,-999.0,-999.0,81,-99.99,,,-99.99,,2013-06-15 21:01:00,
2013-06-15 16:12:00,75.0,67.0,29.94,North,-999,-999.0,-999.0,77,-99.99,,,-99.99,,2013-06-15 21:12:00,
2013-06-15 16:22:00,75.0,67.0,29.94,North,-999,-999.0,-999.0,77,-99.99,,,-99.99,,2013-06-15 21:22:00,
2013-06-15 16:33:00,76.0,67.0,29.93,North,-999,-999.0,-999.0,74,-99.99,,,-99.99,,2013-06-15 21:33:00,
2013-06-15 16:42:00,76.0,67.0,29.94,North,-999,-999.0,-999.0,74,-99.99,,,-99.99,,2013-06-15 21:42:00,
2013-06-15 16:52:00,75.0,67.0,29.96,North,-999,-999.0,-999.0,75,-99.99,,,-99.99,,2013-06-15 21:52:00,
2013-06-15 17:01:00,75.0,67.0,29.96,North,-999,-999.0,-999.0,75,-99.99,,,-99.99,,2013-06-15 22:01:00,
2013-06-15 17:11:00,75.0,66.0,29.96,North,-999,-999.0,-999.0,74,-99.99,,,-99.99,,2013-06-15 22:11:00,
2013-06-15 17:22:00,75.0,66.0,29.99,North,-999,-999.0,-999.0,74,-99.99,,,-99.99,,2013-06-15 22:22:00,
2013-06-15 17:33:00,75.0,66.0,29.99,North,-999,-999.0,-999.0,74,-99.99,,,-99.99,,2013-06-15 22:33:00,
2013-06-15 17:42:00,74.0,66.0,30.00,North,-999,-999.0,-999.0,75,-99.99,,,-99.99,,2013-06-15 22:42:00,
2013-06-15 17:53:00,74.0,67.0,30.01,North,-999,-999.0,-999.0,78,-99.99,,,-99.99,,2013-06-15 22:53:00,
2013-06-15 18:02:00,74.0,67.0,30.01,North,-999,-999.0,-999.0,78,-99.99,,,-99.99,,2013-06-15 23:02:00,
2013-06-15 18:12:00,73.0,66.0,30.00,North,-999,-999.0,-999.0,79,-99.99,,,-99.99,,2013-06-15 23:12:00,
2013-06-15 18:22:00,73.0,66.0,30.00,North,-999,-999.0,-999.0,79,-99.99,,,-99.99,,2013-06-15 23:22:00,
2013-06-15 18:33:00,72.0,66.0,30.02,North,-999,-999.0,-999.0,81,-99.99,,,-99.99,,2013-06-15 23:33:00,
2013-06-15 18:42:00,72.0,67.0,30.04,North,-999,-999.0,-999.0,82,-99.99,,,-99.99,,2013-06-15 23:42:00,
2013-06-15 18:53:00,72.0,67.0,30.03,North,-999,-999.0,-999.0,83,-99.99,,,-99.99,,2013-06-15 23:53:00,
2013-06-15 19:01:00,72.0,67.0,30.03,North,-999,-999.0,-999.0,83,-99.99,,,-99.99,,2013-06-16 00:01:00,
2013-06-15 19:11:00,72.0,66.0,30.03,North,-999,-999.0,-999.0,83,-99.99,,,-99.99,,2013-06-16 00:11:00,
2013-06-15 19:22:00,71.0,66.0,30.05,North,-999,-999.0,-999.0,84,-99.99,,,-99.99,,2013-06-16 00:22:00,
2013-06-15 19:34:00,71.0,66.0,30.05,North,-999,-999.0,-999.0,84,-99.99,,,-99.99,,2013-06-16 00:34:00,
2013-06-15 19:43:00,71.0,66.0,30.04,North,-999,-999.0,-999.0,84,-99.99,,,-99.99,,2013-06-16 00:43:00,
2013-06-15 19:52:00,70.0,66.0,30.04,North,-999,-999.0,-999.0,85,-99.99,,,-99.99,,2013-06-16 00:52:00,
2013-06-15 20:01:00,70.0,66.0,30.04,North,-999,-999.0,-999.0,85,-99.99,,,-99.99,,2013-06-16 01:01:00,
2013-06-15 20:11:00,70.0,65.0,30.05,North,-999,-999.0,-999.0,85,-99.99,,,-99.99,,2013-06-16 01:11:00,
2013-06-15 20:22:00,70.0,65.0,30.05,North,-999,-999.0,-999.0,85,-99.99,,,-99.99,,2013-06-16 01:22:00,
2013-06-15 20:33:00,70.0,65.0,30.06,North,-999,-999.0,-999.0,86,-99.99,,,-99.99,,2013-06-16 01:33:00,
2013-06-15 20:42:00,69.0,65.0,30.07,North,-999,-999.0,-999.0,87,-99.99,,,-99.99,,2013-06-16 01:42:00,
2013-06-15 20:53:00,69.0,65.0,30.08,North,-999,-999.0,-999.0,87,-99.99,,,-99.99,,2013-06-16 01:53:00,
2013-06-15 21:02:00,69.0,65.0,30.08,North,-999,-999.0,-999.0,87,-99.99,,,-99.99,,2013-06-16 02:02:00,
2013-06-15 21:12:00,69.0,65.0,30.07,North,-999,-999.0,-999.0,87,-99.99,,,-99.99,,2013-06-16 02:12:00,
2013-06-15 21:22:00,69.0,65.0,30.07,North,-999,-999.0,-999.0,87,-99.99,,,-99.99,,2013-06-16 02:22:00,
2013-06-15 21:33:00,69.0,65.0,30.06,North,-999,-999.0,-999.0,88,-99.99,,,-99.99,,2013-06-16 02:33:00,
2013-06-15 21:43:00,69.0,65.0,30.06,North,-999,-999.0,-999.0,88,-99.99,,,-99.99,,2013-06-16 02:43:00,
2013-06-15 21:53:00,68.0,65.0,30.05,North,-999,-999.0,-999.0,88,-99.99,,,-99.99,,2013-06-16 02:53:00,
2013-06-15 22:02:00,68.0,65.0,30.05,North,-999,-999.0,-999.0,88,-99.99,,,-99.99,,2013-06-16 03:02:00,
2013-06-15 22:12:00,68.0,64.0,30.05,North,-999,-999.0,-999.0,88,-99.99,,,-99.99,,2013-06-16 03:12:00,
2013-06-15 22:22:00,68.0,64.0,30.05,North,-999,-999.0,-999.0,88,-99.99,,,-99.99,,2013-06-16 03:22:00,
2013-06-15 22:33:00,68.0,64.0,30.04,North,-999,-999.0,-999.0,88,-99.99,,,-99.99,,2013-06-16 03:33:00,
2013-06-15 22:43:00,68.0,64.0,30.04,North,-999,-999.0,-999.0,88,-99.99,,,-99.99,,2013-06-16 03:43:00,
2013-06-15 22:53:00,68.0,64.0,30.06,North,-999,-999.0,-999.0,89,-99.99,,,-99.99,,2013-06-16 03:53:00,
2013-06-15 23:02:00,68.0,64.0,30.06,North,-999,-999.0,-999.0,89,-99.99,,,-99.99,,2013-06-16 04:02:00,
2013-06-15 23:12:00,68.0,64.0,30.06,North,-999,-999.0,-999.0,89,-99.99,,,-99.99,,2013-06-16 04:12:00,
2013-06-15 23:23:00,68.0,64.0,30.06,North,-999,-999.0,-999.0,89,-99.99,,,-99.99,,2013-06-16 04:23:00,
2013-06-15 23:33:00,68.0,64.0,30.04,North,-999,-999.0,-999.0,88,-99.99,,,-99.99,,2013-06-16 04:33:00,
2013-06-15 23:42:00,68.0,64.0,30.03,North,-999,-999.0,-999.0,88,-99.99,,,-99.99,,2013-06-16 04:42:00,
2013-06-15 23:53:00,68.0,64.0,30.02,North,-999,-999.0,-999.0,88,-99.99,,,-99.99,,2013-06-16 04:53:00,